EJU79TX LIMC-EDDL

Flight info

Callsign EJU79TX
Flight time N/A
Altitude 32000
Route AOSTA DCT ORSUD DCT MOLUS DCT GILIR DCT PENDU DCT IXILU DCT GIVOR DCT SORAL DCT IBERA N853 ARCKY T853 NVO T857 BIKMU BIKMU1A
Aircraft A320/M-SDE3FGHIRWY/LB1

Departure

Time 2026-05-07 05:13
Airport Milan Malpensa International Airport (LIMC)

Arrival

Time N/A
Airport Düsseldorf Airport (EDDL)
Time Latitude Longitude Altitude Speed Heading
2026-05-07 05:12 45.64083 8.76270 15997 ft 263 kts 268°
2026-05-07 05:14 45.62242 8.61679 17486 ft 342 kts 256°
2026-05-07 05:14 45.61713 8.58327 18006 ft 348 kts 256°
2026-05-07 05:14 45.61175 8.54926 18608 ft 352 kts 256°
2026-05-07 05:14 45.60641 8.51538 19219 ft 355 kts 256°
2026-05-07 05:15 45.60089 8.48050 19848 ft 357 kts 256°
2026-05-07 05:15 45.59542 8.44580 20462 ft 359 kts 256°
2026-05-07 05:15 45.58998 8.41136 21035 ft 361 kts 256°
2026-05-07 05:15 45.58443 8.37633 21617 ft 363 kts 256°
2026-05-07 05:16 45.58005 8.34072 22181 ft 367 kts 263°
2026-05-07 05:16 45.58043 8.30366 22732 ft 372 kts 274°
2026-05-07 05:16 45.58589 8.26773 23247 ft 379 kts 284°
2026-05-07 05:16 45.59436 8.23194 23762 ft 382 kts 285°
2026-05-07 05:17 45.60284 8.19595 24244 ft 384 kts 284°
2026-05-07 05:17 45.61131 8.15967 24712 ft 386 kts 284°
2026-05-07 05:17 45.61976 8.12315 25156 ft 388 kts 284°
2026-05-07 05:17 45.62824 8.08634 25592 ft 391 kts 284°
2026-05-07 05:18 45.63673 8.04938 26005 ft 393 kts 284°
2026-05-07 05:18 45.64529 8.01216 26425 ft 395 kts 284°
2026-05-07 05:18 45.65386 7.97482 26795 ft 396 kts 284°
2026-05-07 05:18 45.66246 7.93726 27141 ft 399 kts 284°
2026-05-07 05:19 45.67110 7.89948 27498 ft 401 kts 284°
2026-05-07 05:19 45.67980 7.86149 27847 ft 403 kts 284°
2026-05-07 05:19 45.68855 7.82320 28199 ft 405 kts 283°
2026-05-07 05:19 45.69731 7.78476 28554 ft 407 kts 283°
2026-05-07 05:20 45.70610 7.74615 28883 ft 410 kts 283°
2026-05-07 05:20 45.71495 7.70729 29229 ft 412 kts 283°
2026-05-07 05:20 45.72383 7.66824 29577 ft 414 kts 283°
2026-05-07 05:20 45.73273 7.62895 29887 ft 415 kts 283°
2026-05-07 05:21 45.74162 7.58962 30162 ft 416 kts 283°
2026-05-07 05:21 45.75944 7.51040 30718 ft 419 kts 283°
2026-05-07 05:21 45.76839 7.47054 30973 ft 422 kts 283°
2026-05-07 05:22 45.77740 7.43048 31218 ft 424 kts 283°
2026-05-07 05:22 45.78822 7.39086 31437 ft 431 kts 291°
2026-05-07 05:22 45.80385 7.35385 31695 ft 438 kts 301°
2026-05-07 05:22 45.82407 7.32079 31962 ft 445 kts 311°
2026-05-07 05:23 45.84815 7.29295 32021 ft 442 kts 320°
2026-05-07 05:23 45.87298 7.26808 32027 ft 431 kts 319°
2026-05-07 05:23 45.89738 7.24347 32027 ft 427 kts 319°
2026-05-07 05:24 45.93754 7.20258 32027 ft 425 kts 319°
2026-05-07 05:24 45.98573 7.15327 32026 ft 425 kts 319°
2026-05-07 05:25 46.03386 7.10389 32025 ft 424 kts 320°
2026-05-07 05:25 46.08195 7.05451 32025 ft 424 kts 320°
2026-05-07 05:26 46.12998 7.00511 32018 ft 424 kts 320°
2026-05-07 05:26 46.17795 6.95565 32014 ft 424 kts 320°
2026-05-07 05:27 46.22593 6.90611 32023 ft 424 kts 321°
2026-05-07 05:27 46.27386 6.85650 32027 ft 423 kts 321°
2026-05-07 05:28 46.32168 6.80685 32025 ft 422 kts 321°
2026-05-07 05:28 46.36927 6.75738 32015 ft 421 kts 321°
2026-05-07 05:29 46.41684 6.70764 32013 ft 421 kts 321°
2026-05-07 05:29 46.46381 6.66546 32005 ft 426 kts 331°
2026-05-07 05:30 46.51713 6.62814 32011 ft 425 kts 331°
2026-05-07 05:30 46.57041 6.59048 32023 ft 426 kts 331°
2026-05-07 05:31 46.62369 6.55278 32028 ft 426 kts 331°
2026-05-07 05:31 46.67696 6.51515 32033 ft 425 kts 331°
2026-05-07 05:32 46.72978 6.47776 32034 ft 425 kts 331°
2026-05-07 05:32 46.78323 6.43970 32032 ft 424 kts 331°
2026-05-07 05:33 46.83625 6.40194 32023 ft 423 kts 331°
2026-05-07 05:33 46.88918 6.36417 32021 ft 423 kts 331°
2026-05-07 05:34 46.94199 6.32629 32015 ft 423 kts 331°
2026-05-07 05:34 46.99453 6.28863 32015 ft 423 kts 332°
2026-05-07 05:35 47.04771 6.25050 32017 ft 422 kts 332°
2026-05-07 05:35 47.10019 6.21279 32018 ft 422 kts 332°
2026-05-07 05:36 47.15287 6.17478 32016 ft 421 kts 332°
2026-05-07 05:36 47.20534 6.13690 32011 ft 420 kts 332°
2026-05-07 05:37 47.25773 6.09895 32009 ft 419 kts 332°
2026-05-07 05:37 47.30999 6.06092 32007 ft 419 kts 333°
2026-05-07 05:38 47.36556 6.03560 31998 ft 420 kts 352°
2026-05-07 05:38 47.40462 6.03399 31999 ft 421 kts